GLET03 YSNW-YSNW

Flight info

Callsign GLET03
Flight time 0h 4m
Altitude 4000
Route NWA DCT YJBY DCT NWA
Aircraft H60/M-SDFHITUY/C

Departure

Time 2026-05-08 05:19
Airport Naval Air Station Nowra - HMAS Albatross (YSNW)

Arrival

Time 2026-05-08 05:24
Airport Naval Air Station Nowra - HMAS Albatross (YSNW)
Time Latitude Longitude Altitude Speed Heading
2026-05-08 05:04 -34.94375 150.53597 362 ft 0 kts 225°
2026-05-08 05:13 -34.94380 150.53591 367 ft 3 kts 225°
2026-05-08 05:13 -34.94399 150.53578 362 ft 3 kts 151°
2026-05-08 05:13 -34.94414 150.53595 360 ft 3 kts 170°
2026-05-08 05:13 -34.94433 150.53579 360 ft 4 kts 225°
2026-05-08 05:14 -34.94458 150.53548 364 ft 6 kts 226°
2026-05-08 05:14 -34.94482 150.53519 361 ft 3 kts 224°
2026-05-08 05:14 -34.94501 150.53498 360 ft 6 kts 226°
2026-05-08 05:14 -34.94546 150.53443 361 ft 11 kts 225°
2026-05-08 05:15 -34.94602 150.53397 365 ft 9 kts 185°
2026-05-08 05:15 -34.94634 150.53395 364 ft 3 kts 183°
2026-05-08 05:15 -34.94660 150.53392 363 ft 4 kts 185°
2026-05-08 05:15 -34.94693 150.53389 365 ft 5 kts 185°
2026-05-08 05:16 -34.94729 150.53386 365 ft 6 kts 184°
2026-05-08 05:16 -34.94752 150.53360 368 ft 6 kts 273°
2026-05-08 05:16 -34.94748 150.53304 366 ft 6 kts 275°
2026-05-08 05:16 -34.94748 150.53303 364 ft 0 kts 275°
2026-05-08 05:17 -34.94748 150.53301 367 ft 1 kts 277°
2026-05-08 05:17 -34.94750 150.53306 368 ft 1 kts 60°
2026-05-08 05:17 -34.94749 150.53302 365 ft 0 kts 97°
2026-05-08 05:17 -34.94750 150.53364 381 ft 10 kts 97°
2026-05-08 05:18 -34.94755 150.53440 430 ft 19 kts 97°
2026-05-08 05:18 -34.94768 150.53687 448 ft 32 kts 98°
2026-05-08 05:18 -34.94780 150.53918 530 ft 25 kts 100°
2026-05-08 05:18 -34.94808 150.54113 632 ft 24 kts 97°
2026-05-08 05:19 -34.94827 150.54468 732 ft 62 kts 96°
2026-05-08 05:19 -34.94865 150.55090 920 ft 81 kts 102°
2026-05-08 05:19 -34.95192 150.55687 1019 ft 90 kts 153°
2026-05-08 05:19 -34.95779 150.55859 1200 ft 84 kts 198°
2026-05-08 05:20 -34.96222 150.55648 1183 ft 58 kts 235°
2026-05-08 05:20 -34.96333 150.55215 1185 ft 64 kts 263°
2026-05-08 05:20 -34.96317 150.54552 1186 ft 77 kts 274°
2026-05-08 05:20 -34.96265 150.53981 1197 ft 64 kts 274°
2026-05-08 05:21 -34.96210 150.53433 1194 ft 66 kts 274°
2026-05-08 05:21 -34.96156 150.52881 1198 ft 65 kts 274°
2026-05-08 05:21 -34.96103 150.52326 1200 ft 66 kts 274°
2026-05-08 05:21 -34.96048 150.51774 1210 ft 67 kts 274°
2026-05-08 05:22 -34.95970 150.51209 1203 ft 74 kts 292°
2026-05-08 05:22 -34.95592 150.50742 1211 ft 88 kts 346°
2026-05-08 05:22 -34.94965 150.50819 1201 ft 101 kts 32°
2026-05-08 05:22 -34.94522 150.51531 1204 ft 113 kts 84°
2026-05-08 05:23 -34.94513 150.52514 1168 ft 120 kts 96°
2026-05-08 05:23 -34.94549 150.53507 1042 ft 110 kts 86°
2026-05-08 05:23 -34.94414 150.54336 787 ft 90 kts 52°
2026-05-08 05:23 -34.94092 150.54808 584 ft 50 kts 45°
2026-05-08 05:24 -34.93959 150.54982 423 ft 15 kts 49°
2026-05-08 05:24 -34.93885 150.55078 417 ft 19 kts 48°
2026-05-08 05:24 -34.93833 150.55152 418 ft 6 kts 43°
2026-05-08 05:24 -34.93806 150.55192 409 ft 7 kts 41°
2026-05-08 05:25 -34.93793 150.55235 384 ft 1 kts 41°
2026-05-08 05:25 -34.93789 150.55238 372 ft 0 kts 45°
2026-05-08 05:27 -34.93785 150.55241 376 ft 3 kts 45°
2026-05-08 05:27 -34.93744 150.55253 377 ft 6 kts 51°
2026-05-08 05:27 -34.93705 150.55268 377 ft 8 kts 307°
2026-05-08 05:27 -34.93730 150.55198 376 ft 6 kts 225°
2026-05-08 05:28 -34.93744 150.55181 375 ft 3 kts 225°
2026-05-08 05:28 -34.93765 150.55156 378 ft 5 kts 225°
2026-05-08 05:28 -34.93823 150.55146 379 ft 14 kts 120°
2026-05-08 05:28 -34.93805 150.55196 382 ft 3 kts 41°
2026-05-08 05:29 -34.93806 150.55219 376 ft 2 kts 45°
2026-05-08 05:29 -34.93805 150.55222 373 ft 0 kts 43°
2026-05-08 05:29 -34.93805 150.55221 373 ft 0 kts 43°
2026-05-08 05:30 -34.93805 150.55222 373 ft 0 kts 43°
2026-05-08 05:30 -34.93805 150.55221 373 ft 0 kts 43°
2026-05-08 05:30 -34.93784 150.55228 379 ft 9 kts 47°
2026-05-08 05:31 -34.93719 150.55252 389 ft 14 kts 310°
2026-05-08 05:31 -34.93787 150.55089 472 ft 33 kts 228°
2026-05-08 05:31 -34.93998 150.54845 520 ft 48 kts 232°
2026-05-08 05:31 -34.94252 150.54551 547 ft 52 kts 236°
2026-05-08 05:32 -34.94497 150.54269 516 ft 43 kts 238°
2026-05-08 05:32 -34.94695 150.54069 513 ft 30 kts 240°
2026-05-08 05:32 -34.94837 150.53953 499 ft 20 kts 217°
2026-05-08 05:32 -34.94961 150.53848 508 ft 29 kts 220°
2026-05-08 05:33 -34.95156 150.53665 514 ft 37 kts 212°
2026-05-08 05:33 -34.95325 150.53557 471 ft 14 kts 221°
2026-05-08 05:33 -34.95382 150.53544 437 ft 5 kts 246°
2026-05-08 05:33 -34.95406 150.53500 414 ft 6 kts 255°
2026-05-08 05:34 -34.95416 150.53481 410 ft 1 kts 274°
2026-05-08 05:34 -34.95418 150.53476 406 ft 0 kts 279°
2026-05-08 05:34 -34.95417 150.53472 400 ft 0 kts 275°
2026-05-08 05:34 -34.95417 150.53473 402 ft 1 kts 275°
2026-05-08 05:35 -34.95402 150.53480 423 ft 6 kts 281°
2026-05-08 05:35 -34.95368 150.53332 490 ft 33 kts 250°
2026-05-08 05:35 -34.95595 150.53278 523 ft 46 kts 117°
2026-05-08 05:35 -34.95576 150.53520 417 ft 15 kts 280°
2026-05-08 05:36 -34.95528 150.53504 415 ft 7 kts 269°
2026-05-08 05:36 -34.95523 150.53472 402 ft 1 kts 275°
2026-05-08 05:36 -34.95523 150.53470 397 ft 0 kts 277°
2026-05-08 05:37 -34.95525 150.53511 418 ft 13 kts 33°
2026-05-08 05:37 -34.95549 150.53662 590 ft 30 kts 106°
2026-05-08 05:37 -34.95650 150.54023 721 ft 59 kts 117°
2026-05-08 05:37 -34.95884 150.54540 833 ft 80 kts 132°
2026-05-08 05:38 -34.96275 150.55115 994 ft 91 kts 141°
2026-05-08 05:38 -34.96699 150.55747 1008 ft 98 kts 142°
2026-05-08 05:38 -34.97126 150.56370 998 ft 94 kts 142°
2026-05-08 05:38 -34.97533 150.56962 1000 ft 88 kts 143°
2026-05-08 05:39 -34.97961 150.57581 991 ft 104 kts 143°
2026-05-08 05:39 -34.98475 150.58264 990 ft 115 kts 143°
2026-05-08 05:39 -34.99054 150.58994 991 ft 123 kts 143°
2026-05-08 05:39 -34.99660 150.59773 989 ft 129 kts 143°
2026-05-08 05:40 -35.00290 150.60573 990 ft 131 kts 143°
2026-05-08 05:40 -35.00901 150.61398 998 ft 131 kts 143°
2026-05-08 05:40 -35.01528 150.62206 994 ft 131 kts 143°
2026-05-08 05:40 -35.02152 150.62978 996 ft 130 kts 143°
2026-05-08 05:41 -35.02792 150.63755 992 ft 130 kts 143°
2026-05-08 05:41 -35.03403 150.64593 988 ft 136 kts 137°
2026-05-08 05:41 -35.03910 150.65593 990 ft 140 kts 130°
2026-05-08 05:41 -35.04420 150.66577 990 ft 140 kts 130°
2026-05-08 05:42 -35.04938 150.67577 994 ft 140 kts 130°
2026-05-08 05:42 -35.05446 150.68551 993 ft 140 kts 130°
2026-05-08 05:42 -35.05970 150.69551 992 ft 140 kts 130°
2026-05-08 05:42 -35.06497 150.70557 995 ft 141 kts 130°
2026-05-08 05:43 -35.07033 150.71557 994 ft 141 kts 130°
2026-05-08 05:43 -35.07563 150.72557 991 ft 140 kts 130°
2026-05-08 05:43 -35.08086 150.73542 994 ft 139 kts 130°
2026-05-08 05:43 -35.08615 150.74523 995 ft 138 kts 130°
2026-05-08 05:44 -35.09140 150.75506 981 ft 138 kts 130°
2026-05-08 05:44 -35.09649 150.76501 985 ft 138 kts 130°
2026-05-08 05:44 -35.10156 150.77485 977 ft 136 kts 130°
2026-05-08 05:44 -35.10655 150.78450 979 ft 133 kts 130°
2026-05-08 05:45 -35.11120 150.79415 982 ft 131 kts 130°
2026-05-08 05:45 -35.11570 150.80375 982 ft 130 kts 130°
2026-05-08 05:45 -35.12016 150.81335 986 ft 131 kts 130°
2026-05-08 05:45 -35.12471 150.82288 982 ft 132 kts 130°
2026-05-08 05:46 -35.12947 150.83266 989 ft 133 kts 130°
2026-05-08 05:46 -35.13424 150.84236 980 ft 133 kts 130°
2026-05-08 05:46 -35.13901 150.85190 981 ft 131 kts 130°
2026-05-08 05:46 -35.14359 150.86111 917 ft 126 kts 130°
2026-05-08 05:47 -35.14873 150.86827 668 ft 98 kts 134°
2026-05-08 05:47 -35.15299 150.87345 460 ft 76 kts 135°
2026-05-08 05:47 -35.15616 150.87758 259 ft 58 kts 132°
2026-05-08 05:47 -35.15855 150.88075 134 ft 43 kts 132°
2026-05-08 05:48 -35.16021 150.88295 46 ft 28 kts 132°
2026-05-08 05:48 -35.16116 150.88425 20 ft 13 kts 130°
2026-05-08 05:48 -35.16144 150.88467 22 ft 0 kts 130°
2026-05-08 05:48 -35.16145 150.88467 24 ft 0 kts 130°
2026-05-08 05:49 -35.16146 150.88467 26 ft 0 kts 130°
2026-05-08 05:49 -35.16146 150.88468 27 ft 0 kts 130°
2026-05-08 05:50 -35.16203 150.88548 179 ft 29 kts 139°
2026-05-08 05:50 -35.16428 150.88787 511 ft 55 kts 153°
2026-05-08 05:50 -35.16787 150.89076 630 ft 64 kts 155°
2026-05-08 05:50 -35.17215 150.89361 588 ft 73 kts 161°
2026-05-08 05:51 -35.17698 150.89631 572 ft 77 kts 166°
2026-05-08 05:51 -35.18204 150.89869 567 ft 78 kts 171°
2026-05-08 05:51 -35.18657 150.90059 570 ft 61 kts 171°
2026-05-08 05:51 -35.19009 150.90080 571 ft 46 kts 198°
2026-05-08 05:52 -35.19178 150.89751 577 ft 48 kts 256°
2026-05-08 05:52 -35.19267 150.89327 565 ft 60 kts 257°
2026-05-08 05:52 -35.19403 150.88859 573 ft 51 kts 255°
2026-05-08 05:52 -35.19355 150.88469 575 ft 46 kts 302°
2026-05-08 05:53 -35.19131 150.88207 559 ft 45 kts 314°
2026-05-08 05:53 -35.18851 150.88033 562 ft 45 kts 343°
2026-05-08 05:53 -35.18539 150.87907 566 ft 55 kts 343°
2026-05-08 05:53 -35.18102 150.87801 570 ft 74 kts 343°
2026-05-08 05:54 -35.17494 150.87710 584 ft 104 kts 350°
2026-05-08 05:54 -35.16828 150.87687 576 ft 88 kts 348°
2026-05-08 05:54 -35.16300 150.87727 579 ft 58 kts 66°
2026-05-08 05:54 -35.16128 150.87971 556 ft 40 kts 79°
2026-05-08 05:55 -35.16015 150.88323 565 ft 45 kts 75°
2026-05-08 05:55 -35.15874 150.88662 564 ft 45 kts 31°
2026-05-08 05:55 -35.15683 150.88996 577 ft 47 kts 297°